Main page
METAR-TAF:

METAR-TAF

Airports :

Bushehr Airport

Bushehr, Iran

latitude: 28-59N, longitude: 050-50E, elevation: 19 m

Current weather observation

The report was made 35 minutes ago, at 07:30 UTC
Wind 12 kt from the West/Southwest
Temperature 38°C
Humidity 24%
Pressure 1000 hPa
Visibility: 7000 m

METAR: OIBB 250730Z 24012KT 7000 NSC 38/14 Q1000 A2954

Time: 12:35 (08:05 UTC)


TAF: missing

Weather observations and forecasts of more than 4000 airports (METAR and TAF reports).

The available stations are represented by yellow and red dots on the map.

Hover mouse over dot to see the name of the station.

Then click to see weather observations and forecasts.

To change the map : click on the green buttons with a black cross to zoom in, on the green button with a dash to zoom out, or on the green arrows for adjacent maps.


METAR-TAF: